#timestamp,LO_Frequency,Hit,StdDev 
1552964415.7,286047002.2,N
1552964435.5,286047001.6,N
1552964455.4,286047001.6,N
1552964475.2,286047003.8,N
1552964495.0,286047001.0,N
1552964495.9,286047001.0,N
1552964515.8,286047002.0,N
1552964535.6,286047000.3,N
1552964555.4,286046998.6,N
1552964575.3,286047001.9,N
1552964595.1,286047002.8,N
1552964615.9,286047005.8,N
1552964635.7,286047005.2,N
1552964655.5,286047006.6,N
1552964675.4,286047004.7,N
1552964695.2,286047007.4,N
1552964715.1,286047009.3,N
1552964716.0,286047009.3,N
1552964735.8,286047018.2,Y
1552964755.6,286047013.8,P
1552964775.5,286047017.8,P
1552964795.3,286047019.7,P
1552964815.1,286047015.9,N
1552964835.9,286047017.1,Y
1552964855.7,286046999.8,P
1552964875.6,286046996.2,N
1552964895.4,286046987.7,N
1552964915.2,286046989.2,N
1552964935.1,286046987.4,N
1552964936.0,286046987.4,N
1552964955.8,286046987.9,N
1552964975.7,286046990.7,N
1552964995.5,286046998.7,N
1552965015.3,286047000.1,N
1552965035.2,286046997.3,N
1552965055.0,286047000.7,N
1552965055.9,286047000.7,N
1552965075.7,286047007.1,N
1552965095.6,286047008.8,N
1552965115.4,286047006.8,N
1552965135.3,286046998.2,N
1552965155.1,286046998.1,N
1552965175.8,286046995.5,N
1552965195.7,286046997.9,N
1552965215.5,286046990.7,N
1552965235.4,286046990.4,N
1552965255.2,286046988.4,N
1552965275.0,286046984.0,N
1552965275.9,286046984.0,N
1552965295.8,286046982.0,N
1552965315.6,286046980.6,N
1552965335.4,286046978.9,N
1552965355.3,286046989.1,N
1552965375.1,286046991.9,N
1552965395.9,286046994.9,N
1552965415.7,286047001.4,N
1552965435.5,286047005.8,N
1552965455.4,286047002.2,N
1552965475.2,286047003.8,N
1552965495.0,286047011.8,N
1552965495.9,286047011.8,N
1552965515.8,286047001.3,N
1552965535.6,286046998.2,N
1552965555.5,286047008.9,N
1552965575.3,286047015.0,N
1552965595.1,286047018.1,N
1552965615.9,286047011.0,N
1552965635.7,286047015.0,N
1552965655.5,286047015.9,N
1552965675.4,286047015.1,N
1552965695.2,286047001.9,N
1552965715.1,286047003.5,N
1552965716.0,286047003.5,N
1552965735.8,286047014.0,N
1552965755.6,286047012.5,N
1552965775.5,286047012.2,N
1552965795.3,286047005.2,N
1552965815.2,286047002.6,N
1552965835.9,286047001.0,N
1552965855.7,286047005.2,N
1552965875.6,286047007.6,N
1552965895.4,286047013.3,N
1552965915.2,286047011.5,N
1552965935.1,286047008.3,N
1552965936.0,286047008.3,N
1552965955.8,286047006.9,N
1552965975.7,286047007.2,N
1552965995.5,286047012.2,N
1552966015.3,286047013.1,N
1552966035.2,286047011.9,N
1552966055.0,286047019.7,Y
1552966055.9,286047019.7,P
1552966075.7,286047018.7,P
1552966095.6,286047018.0,P
1552966115.4,286047028.4,Y
1552966135.3,286047016.1,P
1552966155.1,286047010.8,P
1552966175.8,286047005.0,N
1552966195.7,286047008.0,N
1552966215.5,286046997.1,N
1552966235.3,286046990.3,N
1552966255.2,286046989.4,N
1552966275.0,286046990.9,N
1552966275.9,286046990.9,N
1552966295.8,286046990.2,N
1552966315.6,286046994.0,N
1552966335.4,286046992.3,N
1552966355.3,286046995.3,N
1552966375.1,286046996.2,N
1552966395.9,286046998.3,N
1552966415.7,286046998.5,N
1552966435.5,286047004.2,N
1552966455.4,286046991.8,N
1552966475.2,286046994.8,N
1552966495.0,286047001.2,N
1552966495.9,286047001.2,N
1552966515.8,286046993.7,N
1552966535.6,286046996.8,N
1552966555.4,286046993.6,N
1552966575.3,286046992.0,N
1552966595.1,286046990.9,N
1552966615.9,286046991.4,N
1552966635.7,286046988.1,N
1552966655.5,286046981.0,N
1552966675.4,286046980.2,N
1552966695.2,286046985.4,N
1552966715.0,286046981.7,N
1552966716.0,286046981.7,N
1552966735.8,286046975.8,Y
1552966755.6,286046980.9,P
1552966775.5,286046994.7,N
1552966795.3,286046988.7,N
1552966815.1,286046996.5,N
1552966835.9,286047003.1,N
1552966855.7,286047000.1,N
1552966875.6,286047011.6,N
1552966895.4,286047009.4,N
1552966915.2,286047010.7,N
1552966935.1,286047002.8,N
1552966936.0,286047002.8,N
1552966955.8,286047000.8,N
1552966975.6,286046999.2,N
1552966995.5,286047001.7,N
1552967015.3,286046998.8,N
1552967035.2,286046998.4,N
1552967055.9,286047002.2,N
1552967075.7,286046999.1,N
1552967095.6,286046995.4,N
1552967115.4,286047002.7,N
1552967135.2,286047006.1,N
1552967155.1,286047013.0,N
1552967156.0,286047013.0,N
1552967175.8,286047009.8,N
1552967195.7,286047014.5,N
1552967215.5,286047015.0,N
1552967235.3,286047011.9,N
1552967255.2,286047010.4,N
1552967275.9,286047009.0,N
1552967295.7,286047010.6,N
1552967315.6,286047006.8,N
1552967335.4,286047012.2,N
1552967355.3,286047008.4,N
1552967375.1,286047017.1,N
1552967376.0,286047017.1,N
1552967395.8,286047013.6,N
1552967415.7,286047011.0,N
1552967435.5,286047009.1,N
1552967455.4,286047003.5,N
1552967475.2,286047000.4,N
1552967495.0,286047007.6,N
1552967495.9,286047007.6,N
1552967515.8,286046997.0,N
1552967535.6,286046989.9,N
1552967555.4,286046993.4,N
1552967575.3,286046995.9,N
1552967595.1,286046988.5,N
1552967615.9,286046996.1,N
1552967635.7,286046995.2,N
1552967655.5,286046997.6,N
1552967675.4,286046995.0,N
1552967695.2,286046996.8,N
1552967715.0,286046992.5,N
1552967715.9,286046992.5,N
1552967735.8,286046986.5,N
1552967755.6,286046980.9,N
1552967775.5,286046986.1,N
1552967795.3,286046991.6,N
1552967815.1,286046987.5,N
1552967835.9,286046983.6,N
1552967855.7,286046981.6,N
1552967875.6,286046978.3,N
1552967895.4,286046977.4,N
1552967915.2,286046977.6,N
1552967935.1,286046976.9,N
1552967936.0,286046976.9,N
1552967955.8,286046971.2,N
1552967975.6,286046977.0,N
1552967995.5,286046975.1,N
